sat.trackr.live / text

‹ back to catalog

STARLINK-3957

NORAD 52562 · 2022-051AF

PAYLOAD ACTIVE UNKNOWN

§ Identity

Operator
Country
US
Launch date
2022-05-13
Launch site
AFWTR
Launch vehicle
Mass (kg)
RCS (m²)

Purposes: comms

External: N2YO · Heavens-Above · Gunter

§ Orbital elements

Epoch: 2026-09-19T14:30:18.647136Z

Period
93.85 min
Inclination
53.1621°
Eccentricity
0.0001426
Mean motion
15.34385574 rev/d
Perigee alt
461.8 km
Apogee alt
463.7 km
Semi-major
6,840.9 km
B*
2.6450e-5
RAAN
311.9455°
Arg perigee
79.4447°
Mean anomaly
280.6716°
Rev number
24,108

§ Raw data

STARLINK-39571 52562U 22051AF  26262.60438249  .00000517  00000+0  26450-4 0  99972 52562  53.1621 311.9455 0001426  79.4447 280.6716 15.34385574241086

JSON: /api/v1/satellites/52562 · /tle

For live sub-satellite position, see the globe view (requires WebGL).

§ Visibility from observer

Set your observer location to see the next 7 days of passes ≥ 10°. The values pass through the URL so the page stays shareable.

No JS? Fill the form by hand. The geolocation button needs JavaScript.